Content
SEND FEEDBACK

Daily
Averages
Monthly
Summary
United States of America

NEW YORK - CENTRAL PARK, NEW YORK


Home > North America > United States > New York
Elevation: 4 meters     Latitude: 40 47N     Longitude: 073 58W

WEATHER
 
SELECT A DAY
Number of Records: 151,321;   Date Range: 11/1/95 - 10/24/14
 
SHARE

PRINT THIS DATA

[ ← Previous Day ]
WEATHER ALMANAC - 20 MARCH, 2013
[ Next Day → ]
[ °F ]   °C
Weather ElementAverageHighLow
Temperature3.7 °C6.7 °C (2:51 pm)0.6 °C (4:51 am)
Dewpoint-8.5 °C-5 °C (1:51 am)-10 °C (6:51 pm)
Humidity41.9 %59 % (1:51 am)30 % (6:51 pm)
Barometer1010.2 hPa1011.9 hPa (6:51 am)1008.8 hPa (2:51 pm)
Wind Speed13 km/h22.2 km/h (10:51 am)
Wind Gust44.4 km/h (9:51 am)
Weather ElementAverage
Visibility16.1 km
Wind DirectionS (176.5 °)

Weather ElementTotal
Precipitation---
Heating Degree Days14.7 (Base 18.3)
Averaged from 23 records on 20 March, 2013
WEATHER CONDITIONS BREAKOUT
WIND DIRECTION BREAKOUT
WEATHER BY HOUR - 20 MARCH, 2013
[ °F ]   °C
Local TimeTemperatureDewpointHumidityBarometerVisibilityWind DirectionWind SpeedGust SpeedPrecipitationEventsConditions
1:51 AM2.2 °C-5 °C59 %1010.2 hPa16.1 kmVariable11.1 km/hOvercast
2:51 AM1.7 °C-9.4 °C44 %1010.8 hPa16.1 kmWNW (290°)16.7 km/h27.8 km/hPartly Cloudy
3:51 AM1.1 °C-8.3 °C50 %1011.2 hPa16.1 kmWNW (290°)13 km/hClear
4:51 AM0.6 °C-8.3 °C52 %1011.2 hPa16.1 kmWest (270°)13 km/h29.6 km/hClear
5:51 AM0.6 °C-8.3 °C52 %1011.5 hPa16.1 kmNorthClear
6:51 AM0.6 °C-7.8 °C54 %1011.9 hPa16.1 kmCalmMostly Cloudy
7:51 AM0.6 °C-8.3 °C52 %1011.9 hPa16.1 kmWest (280°)14.8 km/h33.3 km/hMostly Cloudy
8:51 AM1.1 °C-8.9 °C48 %1011.5 hPa16.1 kmWest (280°)14.8 km/h35.2 km/hClear
9:51 AM2.2 °C-8.9 °C44 %1011.5 hPa16.1 kmWNW (300°)20.4 km/h44.4 km/hScattered Clouds
10:51 AM2.8 °C-8.9 °C42 %1011.9 hPa16.1 kmWest (280°)22.2 km/h40.7 km/hMostly Cloudy
11:51 AM3.3 °C-8.9 °C41 %1011.2 hPa16.1 kmWNW (300°)20.4 km/h40.7 km/hPartly Cloudy
12:51 PM5 °C-8.3 °C38 %1010.8 hPa16.1 kmWNW (300°)11.1 km/h29.6 km/hPartly Cloudy
1:51 PM5.6 °C-8.3 °C37 %1010.2 hPa16.1 kmWNW (300°)16.7 km/h27.8 km/hClear
2:51 PM6.7 °C-8.3 °C34 %1008.8 hPa16.1 kmNorthClear
3:51 PM6.7 °C-8.9 °C32 %1008.8 hPa16.1 kmWNW (300°)13 km/h25.9 km/hOvercast
4:51 PM6.1 °C-9.4 °C32 %1008.8 hPa16.1 kmWest (260°)20.4 km/h33.3 km/hOvercast
5:51 PM6.7 °C-8.9 °C32 %1008.8 hPa16.1 kmVariable11.1 km/hMostly Cloudy
6:51 PM6.7 °C-10 °C30 %1008.8 hPa16.1 kmVariable9.3 km/hMostly Cloudy
7:51 PM6.1 °C-10 °C31 %1008.8 hPa16.1 kmWNW (300°)9.3 km/hClear
8:51 PM5 °C-8.9 °C36 %1009.5 hPa16.1 kmNW (310°)5.6 km/hScattered Clouds
9:51 PM5 °C-8.3 °C38 %1009.5 hPa16.1 kmVariable7.4 km/hOvercast
10:51 PM5 °C-8.3 °C38 %1009.8 hPa16.1 kmNorthOvercast
11:51 PM3.3 °C-6.7 °C48 %1010.2 hPa16.1 kmVariable11.1 km/hOvercast
Hourly data recorded from KNYC, located 0 kilometers away from New York - Central Park, New York







STORIES FROM OUR PARTNERS